Total_Precipitation_Accumulation
1.66 1.61 1.52 1.49 1.49 1.41 1.34 1.31 1.26 1.20 1.07 0.97 0.87 0.75 0.72 0.65 0.56 0.49 0.41 0.42 0.43 0.60 0.94 1.28 1.56 1.84 2.07 2.14 2.16 2.03 1.96 1.83 1.56 1.39 1.38 1.49 1.54 1.59 1.59 1.63 1.58 1.46 1.44
1.64 1.62 1.59 1.55 1.55 1.50 1.40 1.35 1.30 1.26 1.16 1.05 0.93 0.82 0.77 0.73 0.66 0.58 0.50 0.48 0.47 0.54 0.78 1.07 1.38 1.79 2.08 2.21 2.31 2.33 2.16 2.11 1.97 1.67 1.49 1.46 1.51 1.58 1.62 1.68 1.72 1.66 1.57
1.62 1.58 1.59 1.54 1.50 1.49 1.45 1.41 1.42 1.42 1.36 1.24 1.10 0.99 0.89 0.82 0.74 0.66 0.60 0.55 0.54 0.57 0.66 0.86 1.08 1.40 1.83 2.20 2.37 2.52 2.46 2.29 2.31 2.17 1.91 1.70 1.62 1.60 1.65 1.68 1.72 1.78 1.71
1.74 1.73 1.67 1.59 1.53 1.58 1.53 1.40 1.36 1.35 1.32 1.26 1.18 1.08 0.98 0.90 0.83 0.76 0.72 0.65 0.64 0.63 0.64 0.71 0.83 1.05 1.47 1.97 2.41 2.64 2.95 2.69 2.49 2.53 2.47 2.15 1.88 1.76 1.78 1.83 1.85 1.90 1.93
1.80 1.80 1.78 1.69 1.63 1.68 1.67 1.55 1.39 1.27 1.20 1.15 1.09 1.06 0.99 0.94 0.97 0.96 0.89 0.80 0.73 0.74 0.76 0.75 0.77 0.85 1.08 1.52 2.02 2.48 3.02 3.33 3.06 2.91 2.93 2.79 2.40 2.11 2.02 2.04 2.08 2.12 2.18
1.91 1.84 1.79 1.72 1.66 1.65 1.66 1.65 1.55 1.40 1.25 1.16 1.11 1.05 0.96 0.88 0.86 0.85 0.84 0.82 0.75 0.71 0.78 0.80 0.78 0.74 0.84 1.07 1.47 2.05 2.63 3.22 3.51 3.37 3.29 3.31 3.12 2.75 2.49 2.39 2.35 2.42 2.49
2.09 2.00 1.92 1.88 1.81 1.70 1.57 1.55 1.57 1.57 1.49 1.38 1.38 1.27 1.08 0.94 0.85 0.77 0.75 0.75 0.71 0.66 0.66 0.74 0.81 0.77 0.71 0.80 0.99 1.37 2.02 2.81 3.49 3.78 3.72 3.61 3.58 3.34 3.01 2.77 2.60 2.62 2.72
2.22 2.12 1.98 1.92 1.88 1.81 1.71 1.58 1.56 1.60 1.54 1.50 1.54 1.58 1.42 1.20 0.97 0.76 0.71 0.69 0.69 0.72 0.71 0.69 0.75 0.81 0.78 0.72 0.70 0.88 1.27 2.03 2.93 3.62 3.96 4.01 3.97 3.92 3.62 3.27 3.01 2.94 3.02
2.07 2.01 1.90 1.82 1.82 1.81 1.76 1.66 1.56 1.52 1.49 1.41 1.39 1.66 1.68 1.34 0.96 0.79 0.72 0.71 0.69 0.72 0.74 0.73 0.72 0.77 0.83 0.81 0.75 0.78 0.91 1.35 2.16 3.09 3.72 4.07 4.21 4.38 4.29 3.81 3.49 3.36 3.38
1.89 1.87 1.87 1.80 1.70 1.65 1.59 1.55 1.52 1.48 1.46 1.47 1.40 1.36 1.39 1.30 1.23 0.98 0.74 0.71 0.73 0.76 0.78 0.79 0.80 0.82 0.88 0.91 0.90 0.92 0.94 1.07 1.60 2.32 3.15 3.86 4.31 4.66 4.92 4.50 3.97 3.70 3.61
1.92 1.88 1.86 1.86 1.77 1.66 1.57 1.53 1.52 1.51 1.48 1.43 1.38 1.28 1.22 1.13 1.12 1.21 0.95 0.75 0.76 0.75 0.76 0.81 0.83 0.87 0.92 0.98 0.99 0.99 1.07 1.07 1.36 1.85 2.48 3.34 4.09 4.76 5.33 5.17 4.45 3.92 3.70
1.90 1.80 1.79 1.79 1.75 1.65 1.53 1.48 1.47 1.49 1.48 1.41 1.33 1.27 1.28 1.25 1.13 1.18 1.10 0.85 0.81 0.77 0.76 0.81 0.86 0.88 0.90 0.95 0.98 1.10 1.13 1.15 1.27 1.54 1.92 2.53 3.33 4.10 5.00 5.39 4.81 4.15 3.79
1.83 1.73 1.64 1.59 1.56 1.54 1.52 1.48 1.44 1.40 1.41 1.46 1.41 1.31 1.24 1.18 1.13 1.21 1.28 1.13 1.00 0.86 0.84 0.84 0.85 0.91 0.97 1.00 1.05 1.15 1.12 1.20 1.29 1.43 1.61 1.87 2.41 3.22 4.14 5.17 5.43 4.73 4.16
1.69 1.65 1.63 1.54 1.42 1.38 1.43 1.48 1.47 1.40 1.39 1.44 1.39 1.33 1.27 1.16 1.18 1.27 1.39 1.52 1.47 1.12 0.96 0.89 0.83 0.87 0.95 1.04 1.12 1.20 1.08 1.23 1.33 1.41 1.53 1.64 1.84 2.38 3.22 4.27 5.32 5.40 4.72
1.67 1.69 1.65 1.61 1.52 1.44 1.39 1.41 1.43 1.38 1.40 1.39 1.38 1.36 1.36 1.24 1.21 1.24 1.32 1.54 1.89 1.68 1.09 0.84 0.82 0.86 0.94 1.04 1.18 1.13 1.05 1.18 1.29 1.39 1.53 1.63 1.70 1.96 2.39 3.06 4.03 5.06 5.30
1.59 1.69 1.71 1.65 1.65 1.61 1.54 1.45 1.40 1.37 1.43 1.43 1.45 1.47 1.45 1.41 1.40 1.35 1.37 1.46 1.65 1.82 1.44 0.83 0.76 0.82 0.97 1.09 1.27 1.26 1.26 1.40 1.37 1.42 1.49 1.58 1.61 1.74 2.00 2.39 3.00 3.93 4.90
1.45 1.55 1.63 1.64 1.65 1.67 1.63 1.57 1.48 1.45 1.46 1.45 1.51 1.57 1.51 1.48 1.56 1.51 1.44 1.44 1.49 1.64 1.66 1.00 0.77 0.82 1.06 1.27 1.33 1.38 1.44 1.39 1.37 1.47 1.50 1.57 1.60 1.67 1.87 2.12 2.47 3.05 3.93
1.47 1.49 1.61 1.72 1.71 1.69 1.66 1.64 1.60 1.60 1.63 1.58 1.51 1.53 1.54 1.53 1.57 1.58 1.59 1.53 1.45 1.44 1.54 1.31 0.96 0.96 1.14 1.35 1.41 1.46 1.55 1.52 1.46 1.58 1.60 1.68 1.76 1.80 1.91 2.04 2.25 2.53 3.13
1.61 1.55 1.59 1.71 1.75 1.74 1.70 1.63 1.63 1.67 1.73 1.80 1.76 1.73 1.65 1.64 1.66 1.61 1.64 1.61 1.53 1.45 1.44 1.45 1.19 1.06 1.17 1.32 1.45 1.54 1.58 1.60 1.61 1.72 1.68 1.70 1.83 1.94 1.97 2.02 2.13 2.31 2.53
1.66 1.63 1.59 1.62 1.71 1.81 1.88 1.87 1.89 1.85 1.85 1.87 1.89 1.90 1.85 1.82 1.77 1.74 1.78 1.74 1.72 1.76 1.71 1.69 1.50 1.30 1.28 1.31 1.48 1.69 1.82 1.69 1.65 1.65 1.72 1.71 1.84 1.96 1.99 1.94 1.88 2.00 2.21
1.69 1.66 1.63 1.58 1.63 1.88 2.23 2.20 2.10 2.01 1.88 1.81 1.77 1.76 1.82 2.01 2.07 2.13 2.16 2.06 2.07 2.21 2.18 2.08 1.84 1.62 1.47 1.51 1.59 1.67 1.92 1.90 1.78 1.71 1.74 1.68 1.69 1.69 1.75 1.86 1.93 2.01 2.16
1.76 1.68 1.63 1.58 1.61 1.82 2.38 2.45 2.09 1.82 1.68 1.67 1.68 1.60 1.59 1.82 1.93 2.09 2.25 2.25 2.32 2.52 2.61 2.49 2.17 1.90 1.62 1.53 1.61 1.84 2.08 2.27 2.21 1.80 1.81 1.88 1.83 1.89 1.82 1.83 2.02 2.07 2.16
1.80 1.74 1.63 1.56 1.52 1.63 2.12 2.21 1.98 1.63 1.48 1.47 1.50 1.50 1.49 1.53 1.68 1.61 1.82 1.96 2.01 2.22 2.48 2.56 2.50 2.04 1.77 1.62 1.89 2.10 2.14 2.28 2.20 1.93 2.02 2.29 2.10 2.07 1.97 2.01 2.08 1.94 2.01
1.87 1.77 1.66 1.57 1.54 1.52 1.90 2.07 1.92 1.50 1.34 1.29 1.30 1.29 1.30 1.34 1.47 1.66 1.75 1.76 1.68 1.77 2.06 2.26 2.43 2.24 2.03 1.96 2.23 2.53 2.64 2.68 2.45 2.21 2.15 2.57 2.35 2.25 2.18 2.13 2.10 1.90 1.92
1.79 1.75 1.66 1.50 1.44 1.45 1.70 2.00 1.97 1.53 1.37 1.23 1.20 1.20 1.16 1.15 1.50 1.80 1.76 1.69 1.56 1.55 1.72 2.04 2.28 2.39 2.49 2.60 2.76 3.07 3.26 3.23 3.02 2.57 2.30 2.50 2.54 2.48 2.37 2.29 2.14 1.97 1.86
1.69 1.68 1.66 1.50 1.39 1.35 1.57 1.94 2.13 1.62 1.41 1.28 1.19 1.15 1.28 1.34 1.61 1.74 1.63 1.69 1.75 1.58 1.50 1.59 1.70 1.83 1.93 2.10 2.48 2.76 3.03 3.22 3.13 3.00 2.46 2.46 2.60 2.68 3.01 2.56 2.11 1.82 1.71